Location: Cubitt Town
(51.4833°N, 0.0000°E)
Time: 00:41:11
(UTC+00:00)

Cosmos 540 Rocket - Pass Details

Date: 15 May 2026
Orbit: 735 x 747 km, 74.1° (Epoch: 9 June)

Event Time Altitude Azimuth Distance (km) Brightness Sun altitude
Exits shadow 22:07:44 17° 192° (SSW) 1,808 5.0 -15.6°
Maximum altitude 22:11:39 71° 111° (ESE) 791 3.4 -15.8°
Drops below altitude 10° 22:16:46 10° 28° (NNE) 2,274 6.5 -16.2°
Sets 22:19:09 0° 27° (NNE) 3,201 7.3 -16.3°
